User: anonymous   Login
Location: Wawayanda State Park
(41.1833°N, 74.4333°W)
Time: 00:16:37
(UTC-04:00)
Language:

RESURS DK-1 - Orbit

View from above orbital plane
View from above orbital plane
View from above satellite
View from above satellite

Ground track
Ground track

The orbit data is extracted from the following two-line orbital elements,

1 29228U 06021A   17296.75642675  .00000193  00000-0  21955-4 0  9998
2 29228  69.9338 130.9567 0003821 186.5522 173.5589 15.02228956627404
Epoch (UTC): 23 October 2017 18:09:15
Eccentricity: 0.0003821
inclination: 69.9338°
perigee height: 557 km
apogee height: 562 km
right ascension of ascending node: 130.9567°
argument of perigee: 186.5522°
revolutions per day: 15.02228956
mean anomaly at epoch: 173.5589°
orbit number at epoch: 62740

The dashed part of the orbit path shows where the satellite is in the earth's shadow,  

DLR